Weather History for Gilze-Rijen, Netherlands

Change the Weather History Date:

Friday, December 27, 2013

  Actual Average Record
Temperature  
Mean Temperature 42 °F -  
Max Temperature 49 °F 41 °F 53 °F (1998)
Min Temperature 35 °F 31 °F 17 °F (1996)
Degree Days  
Heating Degree Days 23    
Moisture  
Dew Point 43 °F    
Average Humidity 88    
Maximum Humidity 100    
Minimum Humidity 66    
Precipitation  
Precipitation 0.20 in - - ()
Sea Level Pressure  
Sea Level Pressure 29.36 in    
Wind  
Wind Speed 17 mph ()    
Max Wind Speed 29 mph    
Max Gust Speed 41 mph    
Visibility 6.2 miles    
Events Rain    
Averages and records for this station are not official NWS values.
T = Trace of Precipitation, MM = Missing Value Source: Averaged Metar Reports

Daily Weather History Graph

Daily Weather History Graph

Search for Another Location

Airport:

Trip Planner

Search our weather history database for the weather conditions in past years. The results will help you decide how hot, cold, wet, or windy it might be!

Date:

Astronomy

Dec. 27, 2013 Rise Set
Actual Time 8:45 AM CET 4:36 PM CET
Civil Twilight 8:05 AM CET 5:17 PM CET
Nautical Twilight 7:22 AM CET 6:00 PM CET
Astronomical Twilight 6:41 AM CET 6:41 PM CET
Moon 2:34 AM CET (12/27) 1:01 PM CET (12/27)
Length of Visible Light 9h 11m
Length of Day
7h 50m
Waning Crescent, 31% of the Moon is Illuminated
Dec 27
Waning Crescent
Jan 1
New
Jan 8
First Quarter
Jan 16
Full
Jan 24
Last Quarter

Hourly Weather History & Observations

Time (CET) Temp. Windchill Dew Point Humidity Pressure Visibility Wind Dir Wind Speed Gust Speed Precip Events Conditions
12:00 AM 38 °F - 36 °F 89% 29.59 in 8 mi South 11.2 mph - -  
12:25 AM 37.4 °F 30.3 °F 35.6 °F 93% 29.56 in 6.2 mi South 10.4 mph - N/A   Unknown
12:55 AM 39.2 °F 32.0 °F 35.6 °F 87% 29.56 in 6.2 mi SSW 11.5 mph - N/A   Unknown
1:00 AM 38 °F - 36 °F 89% 29.57 in 12 mi SSW 13.4 mph - -   Partly Cloudy
1:25 AM 39.2 °F 31.6 °F 37.4 °F 93% 29.56 in 6.2 mi SSW 12.7 mph - N/A   Scattered Clouds
1:55 AM 39.2 °F 31.2 °F 35.6 °F 87% 29.53 in 6.2 mi SSW 13.8 mph - N/A   Unknown
2:00 AM 39 °F - 36 °F 86% 29.55 in 16 mi SSW 13.4 mph - -  
2:25 AM 39.2 °F 30.8 °F 37.4 °F 93% 29.53 in 6.2 mi South 15.0 mph - N/A   Partly Cloudy
2:55 AM 41.0 °F 32.8 °F 37.4 °F 87% 29.53 in 6.2 mi South 16.1 mph - N/A   Overcast
3:00 AM 40 °F - 37 °F 85%  in 22 mi South 17.9 mph - -   Overcast
3:25 AM 41.0 °F 32.8 °F 37.4 °F 87% 29.50 in 6.2 mi South 16.1 mph - N/A   Overcast
3:55 AM 41.0 °F 32.2 °F 37.4 °F 87% 29.50 in 6.2 mi South 18.4 mph - N/A   Overcast
4:00 AM 41 °F - 37 °F 80% 29.50 in 22 mi South 17.9 mph - -   Overcast
4:25 AM 41.0 °F 32.5 °F 37.4 °F 87% 29.47 in 6.2 mi South 17.3 mph - N/A   Overcast
4:55 AM 41.0 °F 32.5 °F 37.4 °F 87% 29.44 in 6.2 mi South 17.3 mph - N/A   Mostly Cloudy
5:00 AM 42 °F - 37 °F 76% 29.46 in 22 mi South 17.9 mph - -   Partly Cloudy
5:25 AM 42.8 °F 33.8 °F 37.4 °F 81% 29.44 in 6.2 mi South 21.9 mph 33.4 mph N/A   Overcast
5:55 AM 42.8 °F 33.8 °F 37.4 °F 81% 29.42 in 6.2 mi South 21.9 mph - N/A   Mostly Cloudy
6:00 AM 43 °F - 37 °F 74% 29.41 in 22 mi South 22.4 mph - - Rain Light Drizzle
6:25 AM 42.8 °F 33.8 °F 37.4 °F 81% 29.39 in 6.2 mi South 21.9 mph - N/A   Light Drizzle
6:55 AM 44.6 °F 35.3 °F 37.4 °F 76% 29.36 in 6.2 mi South 26.5 mph - N/A   Light Drizzle
7:00 AM 44 °F - 37 °F 70% 29.37 in 17 mi South 24.6 mph - - Rain Light Drizzle
7:25 AM 44.6 °F 35.1 °F 37.4 °F 76% 29.36 in 6.2 mi South 27.6 mph 39.1 mph N/A   Mostly Cloudy
7:55 AM 44.6 °F 35.1 °F 37.4 °F 76% 29.33 in 6.2 mi South 27.6 mph - N/A   Overcast
8:00 AM 45 °F - 37 °F 66% 29.34 in 28 mi South 24.6 mph - - Rain Rain
8:04 AM 44.6 °F 35.5 °F 37.4 °F 76% 29.33 in 6.2 mi South 25.3 mph 40.3 mph N/A   Overcast
8:25 AM 46.4 °F 37.4 °F 37.4 °F 71% 29.33 in 6.2 mi South 28.8 mph 40.3 mph N/A   Overcast
8:55 AM 44.6 °F 35.3 °F 39.2 °F 81% 29.30 in 6.2 mi South 26.5 mph - N/A   Overcast
9:00 AM 45 °F - 39 °F 71% 29.32 in 19 mi South 26.8 mph - -   Partly Cloudy
9:11 AM 44.6 °F 35.3 °F 39.2 °F 81% 29.33 in 3.7 mi South 26.5 mph - N/A   Haze
9:25 AM 44.6 °F 35.5 °F 41.0 °F 87% 29.30 in 6.2 mi South 25.3 mph 36.8 mph N/A   Overcast
9:38 AM 44.6 °F 35.7 °F 41.0 °F 87% 29.30 in 6.2 mi South 24.2 mph - N/A   Overcast
9:55 AM 46.4 °F 38.1 °F 41.0 °F 81% 29.33 in 6.2 mi South 24.2 mph 36.8 mph N/A   Overcast
10:00 AM 46 °F - 41 °F 75% 29.32 in 28 mi South 22.4 mph - -   Unknown Precipitation
10:25 AM 46.4 °F 37.5 °F 41.0 °F 81% 29.30 in 6.2 mi South 27.6 mph - N/A   Overcast
10:55 AM 48.2 °F - 42.8 °F 82% 29.33 in 6.2 mi SSW 26.5 mph 41.4 mph N/A   Overcast
11:00 AM 48 °F - 42 °F 73% 29.33 in 28 mi SSW 26.8 mph - -   Partly Cloudy
11:25 AM 48.2 °F - 42.8 °F 82% 29.30 in 6.2 mi SSW 25.3 mph 36.8 mph N/A   Overcast
11:29 AM 48.2 °F - 42.8 °F 82% 29.30 in 3.1 mi SSW 26.5 mph - N/A Rain Rain
11:47 AM 46.4 °F 37.9 °F 42.8 °F 87% 29.33 in 6.2 mi South 25.3 mph - N/A   Light Drizzle
11:55 AM 46.4 °F 37.9 °F 42.8 °F 87% 29.33 in 4.3 mi SSW 25.3 mph - N/A   Heavy Drizzle
11:57 AM 46.4 °F 37.7 °F 42.8 °F 87% 29.33 in - South 26.5 mph - N/A   Heavy Drizzle
12:00 PM 47 °F - 44 °F 84% 29.33 in 2 mi South 24.6 mph - - Rain Heavy Rain
12:05 PM 46.4 °F 37.7 °F 44.6 °F 93% 29.33 in - South 26.5 mph - N/A Rain Light Rain
12:18 PM 46.4 °F 38.3 °F 44.6 °F 93% 29.33 in 2.5 mi SSW 23.0 mph - N/A   Heavy Drizzle
12:25 PM 46.4 °F 38.5 °F 44.6 °F 93% 29.33 in - SSW 21.9 mph - N/A Rain Light Rain Showers
12:30 PM 46.4 °F 38.5 °F 44.6 °F 93% 29.33 in - SSW 21.9 mph - N/A Rain Light Rain
12:43 PM 46.4 °F 38.7 °F 44.6 °F 93% 29.33 in 3.7 mi SSW 20.7 mph - N/A   Light Drizzle
12:55 PM 48.2 °F - 44.6 °F 87% 29.30 in 6.2 mi South 21.9 mph - N/A   Mostly Cloudy
1:00 PM 47 °F - 45 °F 90% 29.32 in 12 mi South 20.1 mph - - Rain Light Rain Showers
1:09 PM 48.2 °F - 44.6 °F 87% 29.30 in 4.3 mi SSW 21.9 mph - N/A   Overcast
1:25 PM 48.2 °F - 44.6 °F 87% 29.30 in 3.7 mi SSW 25.3 mph 36.8 mph N/A   Light Drizzle
1:48 PM 48.2 °F - 46.4 °F 93% 29.30 in 6.2 mi SSW 21.9 mph 33.4 mph N/A   Light Drizzle
1:55 PM 48.2 °F - 44.6 °F 87% 29.30 in 6.2 mi SSW 21.9 mph - N/A   Overcast
2:00 PM 48 °F - 45 °F 87% 29.31 in 9 mi SSW 22.4 mph - - Rain Drizzle
2:12 PM 48.2 °F - 46.4 °F 93% 29.30 in 4.3 mi SSW 24.2 mph - N/A   Overcast
2:25 PM 48.2 °F - 46.4 °F 93% 29.30 in 6.2 mi SSW 24.2 mph - N/A   Overcast
2:55 PM 48.2 °F - 46.4 °F 93% 29.30 in 6.2 mi SSW 21.9 mph 33.4 mph N/A   Overcast
3:00 PM 49 °F - 46 °F 85% 29.31 in 6 mi SSW 20.1 mph - - Rain Drizzle
3:25 PM 48.2 °F - 46.4 °F 93% 29.30 in 5.0 mi SSW 18.4 mph - N/A   Overcast
3:31 PM 48.2 °F - 46.4 °F 93% 29.33 in - SSW 18.4 mph - N/A   Light Drizzle
3:36 PM 48.2 °F - 46.4 °F 93% 29.33 in 2.2 mi SSW 17.3 mph - N/A   Drizzle
3:43 PM 48.2 °F - 46.4 °F 93% 29.33 in - SSW 17.3 mph - N/A   Drizzle
3:48 PM 48.2 °F - 46.4 °F 93% 29.33 in - SSW 17.3 mph - N/A   Drizzle
3:55 PM 48.2 °F - 46.4 °F 93% 29.33 in 2.2 mi SSW 15.0 mph - N/A   Heavy Drizzle
4:00 PM 48 °F - 47 °F 93% 29.33 in 2 mi SSW 13.4 mph - - Rain Heavy Drizzle
4:25 PM 48.2 °F - 46.4 °F 93% 29.33 in - SSW 11.5 mph - N/A   Heavy Drizzle
4:42 PM 48.2 °F - 46.4 °F 93% 29.33 in - SSW 13.8 mph - N/A   Drizzle
4:49 PM 48.2 °F - 46.4 °F 93% 29.33 in - SSW 15.0 mph - N/A   Heavy Drizzle
4:55 PM 48.2 °F - 46.4 °F 93% 29.33 in - SSW 13.8 mph - N/A Rain Rain
4:56 PM 48.2 °F - 48.2 °F 100% 29.33 in 2.8 mi South 15.0 mph - N/A Rain Light Rain Showers
5:00 PM 48 °F - 47 °F 96% 29.33 in 3 mi SSW 15.7 mph - - Rain Rain
5:05 PM 48.2 °F - 48.2 °F 100% 29.33 in 4.3 mi SSW 15.0 mph - N/A Rain Light Rain Showers
5:08 PM 48.2 °F - 46.4 °F 93% 29.33 in 4.3 mi SSW 16.1 mph - N/A Rain Light Rain Showers
5:25 PM 48.2 °F - 46.4 °F 93% 29.33 in 5.0 mi SSW 12.7 mph 24.2 mph N/A Rain Light Rain
5:33 PM 48.2 °F - 46.4 °F 93% 29.33 in 5.6 mi SSW 15.0 mph - N/A Rain Light Rain
5:35 PM 48.2 °F - 46.4 °F 93% 29.33 in 6.2 mi SSW 16.1 mph - N/A Rain Heavy Drizzle
5:55 PM 48.2 °F - 46.4 °F 93% 29.33 in 5.6 mi SSW 15.0 mph - N/A Rain Light Rain
6:00 PM 48 °F - 46 °F 90% 29.35 in 6 mi SSW 15.7 mph - - Rain Rain
6:04 PM 48.2 °F - 46.4 °F 93% 29.33 in 4.3 mi SSW 15.0 mph - N/A Rain Light Rain
6:11 PM 48.2 °F - 46.4 °F 93% 29.33 in 5.6 mi SSW 13.8 mph - N/A Rain Light Rain
6:17 PM 48.2 °F - 46.4 °F 93% 29.33 in 4.3 mi SSW 15.0 mph - N/A Rain Light Rain Showers
6:25 PM 48.2 °F - 46.4 °F 93% 29.33 in 5.0 mi SSW 15.0 mph - N/A Rain Light Rain Showers
6:38 PM 48.2 °F - 46.4 °F 93% 29.33 in 4.3 mi SSW 11.5 mph - N/A Rain Light Rain
6:42 PM 48.2 °F - 46.4 °F 93% 29.33 in 5.0 mi SSW 11.5 mph - N/A Rain Light Rain
6:55 PM 48.2 °F - 46.4 °F 93% 29.33 in 6.2 mi SSW 11.5 mph - N/A Rain Light Rain
7:00 PM 48 °F - 46 °F 89% 29.35 in 8 mi SSW 11.2 mph - - Rain Rain
7:25 PM 48.2 °F - 46.4 °F 93% 29.33 in 6.2 mi SSW 12.7 mph - N/A Rain Light Rain
7:55 PM 48.2 °F - 44.6 °F 87% 29.36 in 6.2 mi SSW 10.4 mph - N/A   Mostly Cloudy
8:00 PM 47 °F - 45 °F 90% 29.36 in 25 mi SSW 8.9 mph - - Rain Rain
8:25 PM 48.2 °F - 44.6 °F 87% 29.36 in 6.2 mi SSW 10.4 mph - N/A   Overcast
8:55 PM 48.2 °F - 44.6 °F 87% 29.36 in 6.2 mi SSW 9.2 mph - N/A   Mostly Cloudy
9:00 PM 48 °F - 45 °F 87% 29.37 in 28 mi SSW 8.9 mph - - Rain Light Rain Showers
9:25 PM 48.2 °F - 46.4 °F 93% 29.36 in 6.2 mi SSW 8.1 mph - N/A Rain Light Rain
9:55 PM 48.2 °F - 46.4 °F 93% 29.36 in 6.2 mi SSW 6.9 mph - N/A   Mostly Cloudy
10:00 PM 48 °F - 46 °F 90% 29.37 in 22 mi SSW 8.9 mph - - Rain Rain
10:13 PM 48.2 °F - 46.4 °F 93% 29.36 in 4.3 mi SW 6.9 mph - N/A Rain Light Rain
10:25 PM 48.2 °F - 46.4 °F 93% 29.36 in 5.0 mi SSW 8.1 mph - N/A   Drizzle
10:39 PM 48.2 °F - 46.4 °F 93% 29.36 in 6.2 mi SSW 9.2 mph - N/A   Overcast
10:55 PM 48.2 °F - 44.6 °F 87% 29.36 in 6.2 mi SSW 9.2 mph - N/A   Overcast
11:00 PM 48 °F - 45 °F 86% 29.37 in 17 mi SSW 8.9 mph - - Rain Rain
11:25 PM 46.4 °F 42.9 °F 44.6 °F 93% 29.36 in 6.2 mi SSW 6.9 mph - N/A   Overcast
11:55 PM 46.4 °F 42.9 °F 44.6 °F 93% 29.36 in 6.2 mi South 6.9 mph - N/A   Overcast